Location: Newark
(32.8369°N, 35.2736°E)
Time: 09:52:02
(UTC+00:00)

LightSail 2 - Pass Details

Date: 27 November 2019
Orbit: 696 x 730 km, 24.0° (Epoch: 15 December)

Event Time Altitude Azimuth Distance (km) Brightness Sun altitude
Rises 16:26:01 0° 216° (SW) 3,060 9.1 -23.4°
Reaches altitude 10° 16:29:37 10° 190° (S) 2,140 7.8 -24.1°
Enters shadow 16:31:58 14° 162° (SSE) 1,902 7.3 -24.6°
